Location: Florence
(33.9745°N, 118.2481°W)
Time: 19:43:47
(UTC+00:00)

Meteor 1-26 Rocket - Pass Details

Date: 23 March 2023
Orbit: 810 x 924 km, 81.3° (Epoch: 06 June)

Event Time Altitude Azimuth Distance (km) Brightness Sun altitude
Exits shadow 12:21:54 35° 243° (WSW) 1,304 4.6 -19.4°
Maximum altitude 12:23:25 43° 282° (WNW) 1,151 4.5 -19.1°
Drops below altitude 10° 12:28:45 10° 354° (N) 2,487 6.7 -18.1°
Sets 12:31:21 0° 1° (N) 3,445 7.6 -17.5°
